Terre Haute, IN

1:52 PM EDT on October 16, 2019 (GMT -0400)
Terre Haute International-Hulman

Weather History for KHUF - September, 2019

Change the Weather History Date:

Friday, September 20, 2019

  Actual Average Record
Temperature  
Mean Temperature 74 °F 64 °F  
Max Temperature 88 °F 77 °F 95 °F (1955)
Min Temperature 60 °F 52 °F 33 °F (1991)
Degree Days  
Heating Degree Days 0 3  
Month to date heating degree days 0 24  
Since 1 July heating degree days 0 29  
Cooling Degree Days 9 2  
Month to date cooling degree days 162 81  
Year to date cooling degree days 1190 960  
Growing Degree Days 24 (Base 50)    
Moisture  
Dew Point 63 °F    
Average Humidity 74    
Maximum Humidity 97    
Minimum Humidity 50    
Precipitation  
Precipitation 0.00 in 0.11 in 3.50 in (1966)
Month to date precipitation 0.34 2.43  
Year to date precipitation 37.14 33.71  
Sea Level Pressure  
Sea Level Pressure 30.12 in    
Wind  
Wind Speed 3 mph (South)    
Max Wind Speed 10 mph    
Max Gust Speed 15 mph    
Visibility 7 miles    
Events Fog    
T = Trace of Precipitation, MM = Missing Value Source: NWS Daily Summary

Daily Weather History Graph

Daily Weather History Graph

Search for Another Location

Airport or City:

Astronomy

Sep. 20, 2019 Rise Set
Actual Time 7:34 AM EDT 7:49 PM EDT
Civil Twilight 7:07 AM EDT 8:16 PM EDT
Nautical Twilight 6:36 AM EDT 8:48 PM EDT
Astronomical Twilight 6:04 AM EDT 9:20 PM EDT
Moon 11:41 PM EDT (9/20) 1:37 PM EDT (9/20)
Length of Visible Light 13h 08m
Length of Day
12h 15m
Waning Gibbous, 65% of the Moon is Illuminated
Sep 20
Waning Gibbous
Sep 21
Last Quarter
Sep 28
New
Oct 5
First Quarter
Oct 13
Full

Hourly Weather History & Observations

Time (EDT) Temp. Heat Index Dew Point Humidity Pressure Visibility Wind Dir Wind Speed Gust Speed Precip Events Conditions
12:53 AM 64.0 °F - 61.0 °F 90% 30.06 in 10.0 mi Calm Calm - N/A   Clear
1:53 AM 64.0 °F - 62.1 °F 93% 30.07 in 10.0 mi Calm Calm - N/A   Clear
2:53 AM 63.0 °F - 61.0 °F 93% 30.08 in 7.0 mi Calm Calm - N/A   Clear
3:28 AM 62.1 °F - 61.0 °F 96% 30.09 in 1.8 mi Calm Calm - N/A   Clear
3:34 AM 62.1 °F - 61.0 °F 96% 30.09 in 3.0 mi Calm Calm - N/A   Clear
3:53 AM 62.1 °F - 60.1 °F 93% 30.08 in 6.0 mi Calm Calm - N/A   Clear
4:43 AM 61.0 °F - 59.0 °F 93% 30.09 in 9.0 mi Calm Calm - N/A   Clear
4:53 AM 62.1 °F - 60.1 °F 93% 30.08 in 8.0 mi Calm Calm - N/A   Clear
5:53 AM 61.0 °F - 59.0 °F 93% 30.09 in 4.0 mi Calm Calm - N/A   Clear
6:53 AM 61.0 °F - 59.0 °F 93% 30.11 in 5.0 mi Calm Calm - N/A   Clear
7:00 AM 60.1 °F - 59.0 °F 96% 30.12 in 1.8 mi Calm Calm - N/A   Clear
7:12 AM 60.1 °F - 59.0 °F 96% 30.12 in 0.5 mi Calm Calm - N/A Fog Fog
7:27 AM 60.1 °F - 59.0 °F 96% 30.13 in 2.0 mi Calm Calm - N/A   Clear
7:36 AM 60.1 °F - 59.0 °F 96% 30.13 in 6.0 mi Calm Calm - N/A   Clear
7:39 AM 60.1 °F - 59.0 °F 96% 30.13 in 0.8 mi Calm Calm - N/A   Mist
7:44 AM 61.0 °F - 60.1 °F 97% 30.13 in 0.2 mi Calm Calm - N/A Fog Fog
7:53 AM 62.1 °F - 61.0 °F 96% 30.13 in 0.2 mi Calm Calm - N/A Fog Fog
8:00 AM 61.0 °F - 60.1 °F 97% 30.13 in 0.5 mi Calm Calm - N/A Fog Fog
8:04 AM 62.1 °F - 60.1 °F 93% 30.14 in 2.5 mi NE 3.5 mph - N/A   Scattered Clouds
8:12 AM 63.0 °F - 61.0 °F 93% 30.14 in 5.0 mi Calm Calm - N/A   Scattered Clouds
8:53 AM 68.0 °F - 64.9 °F 90% 30.14 in 7.0 mi Calm Calm - N/A   Clear
9:53 AM 71.1 °F - 66.9 °F 87% 30.16 in 10.0 mi South 5.8 mph - N/A   Clear
10:53 AM 77.0 °F - 66.0 °F 69% 30.16 in 9.0 mi South 4.6 mph - N/A   Mostly Cloudy
11:53 AM 79.0 °F - 68.0 °F 69% 30.16 in 10.0 mi WSW 5.8 mph - N/A   Partly Cloudy
12:53 PM 80.1 °F 82.3 °F 66.9 °F 64% 30.14 in 10.0 mi South 6.9 mph - N/A   Mostly Cloudy
1:53 PM 82.0 °F 85.5 °F 69.1 °F 65% 30.14 in 10.0 mi SSW 9.2 mph - N/A   Mostly Cloudy
2:53 PM 82.9 °F 85.8 °F 68.0 °F 60% 30.13 in 10.0 mi SW 6.9 mph - N/A   Clear
3:53 PM 86.0 °F 88.8 °F 66.9 °F 53% 30.11 in 10.0 mi SW 5.8 mph - N/A   Clear
4:53 PM 87.1 °F 89.9 °F 66.9 °F 51% 30.10 in 10.0 mi South 8.1 mph - N/A   Clear
5:53 PM 87.1 °F 91.3 °F 69.1 °F 55% 30.10 in 10.0 mi SSW 5.8 mph - N/A   Clear
6:53 PM 81.0 °F 84.1 °F 69.1 °F 67% 30.11 in 10.0 mi ESE 9.2 mph - N/A   Partly Cloudy
7:53 PM 77.0 °F - 69.1 °F 76% 30.11 in 10.0 mi SE 4.6 mph - N/A   Clear
8:53 PM 73.0 °F - 66.9 °F 81% 30.13 in 10.0 mi Calm Calm - N/A   Clear
9:53 PM 72.0 °F - 66.9 °F 84% 30.14 in 10.0 mi Calm Calm - N/A   Clear
10:53 PM 69.1 °F - 66.0 °F 90% 30.15 in 10.0 mi Calm Calm - N/A   Clear
11:53 PM 68.0 °F - 64.9 °F 90% 30.15 in 10.0 mi Calm Calm - N/A   Clear